Location: Monte Entu
(40.0333°N, 8.5333°E)
Time: 04:01:04
(UTC+00:00)

Cosmos 2322 - Pass Details

Date: 09 February 2023
Orbit: 841 x 854 km, 71.0° (Epoch: 23 March)

Event Time Altitude Azimuth Distance (km) Brightness Sun altitude
Rises 17:30:44 0° 197° (SSW) 3,404 7.3 -7.6°
Reaches altitude 10° 17:33:10 10° 196° (SSW) 2,473 6.5 -8.0°
Maximum altitude 17:38:51 77° 111° (ESE) 879 3.7 -9.1°
Drops below altitude 10° 17:44:34 10° 26° (NNE) 2,490 5.8 -10.2°
Sets 17:47:01 0° 25° (NNE) 3,429 6.5 -10.6°
